Hourly Weather Chabaihu

Today, 14 June, Monday

Time Temperature Precipitation Wind Pressure Humidity
00:00 +27°C° 0.1 mm 3 mps 750 mmHg 71%
01:00 +26°C° 0.1 mm 3 mps 750 mmHg 74%
02:00 +26°C° 0 mm 3 mps 750 mmHg 76%
03:00 +25°C° 0 mm 3 mps 750 mmHg 78%
04:00 +25°C° 0 mm 3 mps 750 mmHg 79%
05:00 +25°C° 0 mm 4 mps 749 mmHg 80%
06:00 +25°C° 0.1 mm 3 mps 749 mmHg 78%
07:00 +26°C° 0.1 mm 3 mps 750 mmHg 76%
08:00 +26°C° 0 mm 3 mps 750 mmHg 73%
09:00 +28°C° 0.1 mm 3 mps 749 mmHg 67%
10:00 +29°C° 0.1 mm 3 mps 749 mmHg 61%
11:00 +31°C° 0.1 mm 3 mps 749 mmHg 55%
12:00 +31°C° 0 mm 3 mps 748 mmHg 53%
13:00 +33°C° 0 mm 4 mps 748 mmHg 51%
14:00 +33°C° 0 mm 3 mps 748 mmHg 55%
15:00 +31°C° 0 mm 3 mps 748 mmHg 55%
16:00 +31°C° 0 mm 3 mps 748 mmHg 55%
17:00 +32°C° 0 mm 4 mps 747 mmHg 55%
18:00 +30°C° 0.1 mm 3 mps 747 mmHg 60%
19:00 +28°C° 0.1 mm 3 mps 748 mmHg 66%
20:00 +27°C° 0.1 mm 3 mps 748 mmHg 71%
21:00 +26°C° 0 mm 3 mps 748 mmHg 75%
22:00 +25°C° 0 mm 3 mps 748 mmHg 78%
23:00 +25°C° 0 mm 3 mps 749 mmHg 81%

Tomorrow, 15 June, Tuesday

Time Temperature Precipitation Wind Pressure Humidity
00:00 +24°C° 0 mm 3 mps 749 mmHg 81%
01:00 +24°C° 0 mm 3 mps 749 mmHg 82%
02:00 +24°C° 0 mm 3 mps 749 mmHg 82%
03:00 +24°C° 0 mm 3 mps 749 mmHg 83%
04:00 +24°C° 0 mm 3 mps 749 mmHg 84%
05:00 +24°C° 0 mm 3 mps 749 mmHg 85%
06:00 +25°C° 0 mm 3 mps 750 mmHg 78%
07:00 +25°C° 0 mm 4 mps 750 mmHg 71%
08:00 +26°C° 0 mm 4 mps 751 mmHg 64%
09:00 +28°C° 0 mm 4 mps 751 mmHg 55%
10:00 +29°C° 0 mm 4 mps 751 mmHg 45%
11:00 +32°C° 0 mm 4 mps 751 mmHg 36%
12:00 +33°C° 0 mm 4 mps 751 mmHg 34%
13:00 +33°C° 0 mm 4 mps 750 mmHg 32%
14:00 +34°C° 0 mm 4 mps 750 mmHg 30%
15:00 +34°C° 0 mm 5 mps 750 mmHg 32%
16:00 +33°C° 0 mm 6 mps 750 mmHg 34%
17:00 +32°C° 0 mm 6 mps 750 mmHg 35%
18:00 +29°C° 0 mm 6 mps 750 mmHg 41%
19:00 +27°C° 0 mm 5 mps 751 mmHg 47%
20:00 +25°C° 0 mm 5 mps 751 mmHg 53%
21:00 +23°C° 0 mm 4 mps 752 mmHg 55%
22:00 +23°C° 0 mm 4 mps 752 mmHg 57%
23:00 +22°C° 0 mm 4 mps 752 mmHg 59%

Day after tomorrow, 16 June, Wednesday

Time Temperature Precipitation Wind Pressure Humidity
00:00 +22°C° 0 mm 3 mps 752 mmHg 61%
01:00 +22°C° 0 mm 3 mps 752 mmHg 64%
02:00 +23°C° 0 mm 2 mps 752 mmHg 66%
03:00 +21°C° 0 mm 2 mps 752 mmHg 68%
04:00 +21°C° 0 mm 2 mps 752 mmHg 70%
05:00 +20°C° 0 mm 2 mps 752 mmHg 72%
06:00 +23°C° 0 mm 2 mps 753 mmHg 69%
07:00 +24°C° 0 mm 3 mps 753 mmHg 66%
08:00 +25°C° 0 mm 3 mps 753 mmHg 62%
09:00 +27°C° 0 mm 3 mps 753 mmHg 57%
10:00 +29°C° 0 mm 3 mps 753 mmHg 52%
11:00 +31°C° 0 mm 3 mps 752 mmHg 46%
12:00 +30°C° 0 mm 3 mps 752 mmHg 46%
13:00 +30°C° 0 mm 3 mps 752 mmHg 46%
14:00 +30°C° 0 mm 3 mps 751 mmHg 46%
15:00 +29°C° 0 mm 3 mps 751 mmHg 50%
16:00 +28°C° 0 mm 2 mps 752 mmHg 54%
17:00 +26°C° 0 mm 2 mps 752 mmHg 58%
18:00 +25°C° 0.8 mm 1 mps 752 mmHg 68%
19:00 +24°C° 0.8 mm 1 mps 752 mmHg 77%
20:00 +22°C° 0.8 mm 1 mps 753 mmHg 87%
21:00 +22°C° 0.2 mm 1 mps 752 mmHg 87%
22:00 +22°C° 0.2 mm 1 mps 752 mmHg 87%
23:00 +22°C° 0.2 mm 1 mps 752 mmHg 88%

17 June, Thursday

Time Temperature Precipitation Wind Pressure Humidity
00:00 +22°C° 0 mm 1 mps 752 mmHg 88%
01:00 +22°C° 0 mm 1 mps 752 mmHg 88%
02:00 +22°C° 0 mm 1 mps 752 mmHg 88%
03:00 +22°C° 0 mm 1 mps 752 mmHg 89%
04:00 +22°C° 0 mm 1 mps 752 mmHg 90%
05:00 +22°C° 0 mm 1 mps 752 mmHg 91%
06:00 +22°C° 0 mm 3 mps 752 mmHg 80%
07:00 +25°C° 0 mm 4 mps 752 mmHg 70%
08:00 +26°C° 0 mm 6 mps 752 mmHg 59%
09:00 +27°C° 0 mm 7 mps 752 mmHg 47%
10:00 +29°C° 0 mm 8 mps 752 mmHg 36%
11:00 +31°C° 0 mm 8 mps 752 mmHg 24%
12:00 +32°C° 0 mm 8 mps 752 mmHg 21%
13:00 +33°C° 0 mm 7 mps 751 mmHg 18%
14:00 +34°C° 0 mm 7 mps 751 mmHg 14%
15:00 +34°C° 0 mm 7 mps 750 mmHg 13%
16:00 +34°C° 0 mm 7 mps 750 mmHg 12%
17:00 +34°C° 0 mm 7 mps 750 mmHg 11%
18:00 +32°C° 0 mm 5 mps 750 mmHg 13%
19:00 +29°C° 0 mm 3 mps 750 mmHg 16%
20:00 +27°C° 0 mm 2 mps 750 mmHg 18%
21:00 +27°C° 0 mm 2 mps 750 mmHg 19%
22:00 +26°C° 0 mm 2 mps 750 mmHg 20%
23:00 +25°C° 0 mm 2 mps 750 mmHg 20%

18 June, Friday

Time Temperature Precipitation Wind Pressure Humidity
00:00 +25°C° 0 mm 3 mps 750 mmHg 22%
01:00 +24°C° 0 mm 3 mps 749 mmHg 23%
02:00 +23°C° 0 mm 4 mps 749 mmHg 24%
03:00 +23°C° 0 mm 4 mps 749 mmHg 26%
04:00 +23°C° 0 mm 5 mps 749 mmHg 27%
05:00 +23°C° 0 mm 5 mps 749 mmHg 28%
06:00 +24°C° 0 mm 6 mps 749 mmHg 25%
07:00 +26°C° 0 mm 7 mps 750 mmHg 23%
08:00 +28°C° 0 mm 8 mps 750 mmHg 20%
09:00 +29°C° 0 mm 8 mps 750 mmHg 18%
10:00 +31°C° 0 mm 8 mps 750 mmHg 17%
11:00 +32°C° 0 mm 7 mps 750 mmHg 15%
12:00 +33°C° 0 mm 7 mps 749 mmHg 15%
13:00 +35°C° 0 mm 7 mps 749 mmHg 14%
14:00 +36°C° 0 mm 6 mps 748 mmHg 14%
15:00 +36°C° 0 mm 6 mps 747 mmHg 13%
16:00 +38°C° 0 mm 7 mps 747 mmHg 12%
17:00 +38°C° 0 mm 7 mps 747 mmHg 11%
18:00 +35°C° 0 mm 5 mps 747 mmHg 13%
19:00 +33°C° 0 mm 4 mps 747 mmHg 15%
20:00 +30°C° 0 mm 2 mps 747 mmHg 17%
21:00 +29°C° 0 mm 2 mps 747 mmHg 18%
22:00 +28°C° 0 mm 2 mps 747 mmHg 19%
23:00 +27°C° 0 mm 2 mps 747 mmHg 20%

19 June, Saturday

Time Temperature Precipitation Wind Pressure Humidity
00:00 +26°C° 0 mm 2 mps 747 mmHg 21%
01:00 +26°C° 0 mm 2 mps 747 mmHg 21%
02:00 +26°C° 0 mm 2 mps 747 mmHg 21%
03:00 +25°C° 0 mm 2 mps 747 mmHg 22%
04:00 +25°C° 0 mm 2 mps 747 mmHg 22%
05:00 +24°C° 0 mm 2 mps 747 mmHg 23%
06:00 +27°C° 0 mm 2 mps 747 mmHg 20%
07:00 +29°C° 0 mm 3 mps 747 mmHg 18%
08:00 +33°C° 0 mm 3 mps 747 mmHg 15%
09:00 +35°C° 0 mm 5 mps 746 mmHg 14%
10:00 +38°C° 0 mm 6 mps 746 mmHg 12%
11:00 +41°C° 0 mm 7 mps 745 mmHg 10%
12:00 +43°C° 0 mm 7 mps 745 mmHg 10%
13:00 +43°C° 0 mm 7 mps 744 mmHg 10%
14:00 +44°C° 0 mm 7 mps 743 mmHg 9%
15:00 +44°C° 0 mm 7 mps 743 mmHg 10%
16:00 +44°C° 0 mm 7 mps 743 mmHg 10%
17:00 +44°C° 0 mm 7 mps 742 mmHg 11%
18:00 +40°C° 0 mm 6 mps 743 mmHg 11%
19:00 +37°C° 0 mm 5 mps 743 mmHg 12%
20:00 +35°C° 0 mm 4 mps 744 mmHg 12%
21:00 +34°C° 0 mm 4 mps 744 mmHg 14%
22:00 +31°C° 0 mm 3 mps 745 mmHg 16%
23:00 +29°C° 0 mm 3 mps 746 mmHg 18%
Show more

We Need Your Consent

Meteoprog and our Service Providers may store and access personal data such as cookies, device identifiers or other similar technologies on your device and process such data to personalise content and ads, as well as provide social media features and to analyse the traffic.

  • Store and/or access information on your device

    Cookies, device identifiers or other information can be stored or accessed on your device for the purposes indicated above.

  • Personalised ads and content, ad and content measurement, audience insights, and products development

    Ads and content can be personalised based on a profile. More data can be added to better personalise ads and content. Ad and content performance can be measured. Insights about the audience who saw the ads and content can be derived. Such data can be used to develop or improve user’s experience, systems and software.

By clicking ‘I Agree’ you will allow the use of indicated cookies, device identifiers, web beacons or other similar technologies. Your settings can be changed in the browser on your device.

For certain purposes, legitimate interests may be relied on, rather than consent. You can read more about this in our Privacy and Cookie Policy.